This is the latest recevied weather packets stored in our database for station/object KM5R. If no packets are shown the sender has not sent any weather packets the latest 10 day(s).
| Time | Temp. | Humidity | Pressure | Rain* | Wind** | Luminosity | Snow |
|---|---|---|---|---|---|---|---|
| 1777764450 | 22.78° C | 36% | 1021.4 hPa | 0 mm | - | 58 W/m² | - |
| 1777764148 | 22.78° C | 34% | 1021.5 hPa | 0 mm | - | 201 W/m² | - |
| 1777763844 | 23.33° C | 34% | 1021.3 hPa | 0 mm | - | 218 W/m² | - |
| 1777763542 | 22.78° C | 36% | 1021.6 hPa | 0 mm | - | 252 W/m² | - |
| 1777763241 | 22.78° C | 34% | 1021.5 hPa | 0 mm | - | 272 W/m² | - |
| 1777762939 | 22.78° C | 34% | 1021.5 hPa | 0 mm | - | 264 W/m² | - |
| 1777762634 | 22.22° C | 38% | 1021.6 hPa | 0 mm | - | 246 W/m² | - |
| 1777762332 | 23.33° C | 36% | 1021.6 hPa | 0 mm | - | 81 W/m² | - |
| 1777762028 | 23.33° C | 35% | 1021.4 hPa | 0 mm | - | 314 W/m² | - |
| 1777761724 | 23.33° C | 36% | 1021.5 hPa | 0 mm | - | 357 W/m² | - |
| 1777761422 | 23.33° C | 36% | 1021.5 hPa | 0 mm | - | 372 W/m² | - |
| 1777761120 | 23.33° C | 36% | 1021.5 hPa | 0 mm | - | 390 W/m² | - |
| 1777760818 | 23.33° C | 34% | 1021.4 hPa | 0 mm | - | 407 W/m² | - |
| 1777760514 | 23.33° C | 36% | 1021.6 hPa | 0 mm | - | 417 W/m² | - |
| 1777760210 | 23.33° C | 33% | 1021.6 hPa | 0 mm | - | 427 W/m² | - |
| 1777759907 | 23.33° C | 34% | 1021.7 hPa | 0 mm | - | 440 W/m² | - |
| 1777759603 | 23.33° C | 34% | 1021.9 hPa | 0 mm | - | 468 W/m² | - |
| 1777759299 | 22.78° C | 33% | 1021.7 hPa | 0 mm | - | 484 W/m² | - |
| 1777758997 | 22.78° C | 36% | 1021.9 hPa | 0 mm | - | 492 W/m² | - |
| 1777758693 | 22.22° C | 36% | 1021.9 hPa | 0 mm | - | 515 W/m² | - |
| 1777758391 | 22.22° C | 36% | 1021.8 hPa | 0 mm | - | 540 W/m² | - |
| 1777758082 | 22.78° C | 35% | 1022.1 hPa | 0 mm | - | 124 W/m² | - |
| 1777757780 | 23.33° C | 35% | 1022 hPa | 0 mm | - | 554 W/m² | - |
| 1777757477 | 23.33° C | 35% | 1022.1 hPa | 0 mm | - | 563 W/m² | - |
| 1777757175 | 23.33° C | 37% | 1021.8 hPa | 0 mm | - | 605 W/m² | - |
* Rain latest hour (hover to see other rain measurements)
** Current wind speed in m/s (hover to see current wind gust speed)